Regional Weather Roundup
Issued by NWS Goodland, KS

Home | Current Version | Previous Version | Text Only | Print | Product List | Glossary On
Versions: 1 2 3 4 5 6 7 8 9 10 11 12 13 14 15 16 17 18 19 20 21 22 23 24 25 26 27 28 29 30 31 32 33 34 35 36 37 38 39 40 41 42 43 44 45 46 47 48 49 50
000
ASUS43 KGLD 020808
RWRGLD

GOODLAND FORECAST AREA HOURLY WEATHER ROUNDUP
NATIONAL WEATHER SERVICE GOODLAND KS
200 AM MDT SUN AUG 02 2015

...OFFICIAL OBSERVATIONS...

CITY           SKY/WX    TMP DP  RH WIND       PRES   REMARKS
GOODLAND KS    MOCLDY    69  64  84 S8        30.00F
HILL CITY KS   PTCLDY    73  66  78 CALM      29.94F
IMPERIAL NEB   CLOUDY    68  58  70 N3        29.99R
MCCOOK NEB     CLOUDY    72  59  63 SW3       29.94F
AKRON CO       CLOUDY    64  57  78 CALM      30.06F
BURLINGTON CO  PTCLDY    66  62  87 S5        30.03F
LIMON CO       PTCLDY    58  51  78 CALM      30.12F
$$

...UNOFFICIAL OBSERVATIONS...

CITY           SKY/WX    TMP DP  RH WIND       PRES   REMARKS
COLBY KS       CLEAR     68  66  94 SW5       29.98F
NORTON KS      CLEAR     70  61  73 S6        29.93F
SHARON SPRINGS   N/A     70  66  88 S7          N/A
KIT CARSON CO    N/A     69  62  80 MISG        N/A
YUMA CO          N/A     66  62  86 CALM        N/A
$$



USA.gov is the U.S. government's official web portal to all federal, state and local government web resources and services.